Regional Weather Roundup
Issued by NWS New Orleans/Baton Rouge, LA

Home | Current Version | Previous Version | Graphics & Text | Print | Product List | Glossary On
Versions: 1 2 3 4 5 6 7 8 9 10 11 12 13 14 15 16 17 18 19 20 21 22 23 24 25 26 27 28 29 30 31 32 33 34 35 36 37 38 39 40 41 42 43 44 45 46 47 48 49 50
081
ASUS44 KLIX 230810
RWRLIX
NEW ORLEANS REGIONAL WEATHER ROUNDUP
NATIONAL WEATHER SERVICE NEW ORLEANS LA
300 AM CDT WED APR 23 2014

NOTE: "FAIR" INDICATES FEW OR NO CLOUDS BELOW 12,000 FEET WITH NO
      SIGNIFICANT WEATHER AND/OR OBSTRUCTIONS TO VISIBILITY.
      SKY/WX - SKY CONDITION AND SIGNIFICANT WEATHER.
      TMP - AIR TEMPERATURE.     DP    - DEWPOINT TEMPERATURE.
      RH  - RELATIVE HUMIDITY.   PRES  - PRESSURE.
      HI  - HEAT INDEX.          WCI   - WIND CHILL INDEX.

*  THESE STATIONS ARE NOT NWS OR FAA STATIONS AND ARE NOT UNDER
   NWS QUALITY CONTROL.

LAZ038-040-048-061>063-065>067-069-230900-
SOUTHEAST LOUISIANA

CITY           SKY/WX    TMP DP  RH WIND       PRES   REMARKS
N.O. AUDUBON     N/A     65  62  90 MISG        N/A
N.O. INTL ARPT CLEAR     65  63  93 CALM      29.93S
N.O. LAKEFRONT CLEAR     68  65  90 W6        29.93S
N.O. DOWNTOWN*   N/A     68  61  77 CALM      29.93S
SLIDELL        CLEAR     58  55  90 CALM      29.92S
BATON ROUGE    CLEAR     61  58  90 CALM      29.94S
BOOTHVILLE     CLEAR     65  64  97 W5        29.93S FOG
BELLE CHASSE   CLEAR     59  57  94 CALM      29.92S FOG
BOGALUSA*        N/A     58  56  90 CALM      29.93F
GALLIANO*      FOG       59  58  96 CALM      29.93S VSB 1/4
NEW ROADS*       N/A     59  59  98 N3        29.94S FOG
GONZALES*        N/A     60  59  99 CALM      29.93S
HAMMOND*       CLEAR     61  57  88 CALM      29.95R
HOUMA*         FOG       62  60  93 CALM      29.93F VSB 1/4
PORT FOURCHON* MOSUNNY   70  68  94 NW5       29.94F

$$

MSZ070-080>082-230900-
SOUTHERN MISSISSIPPI

CITY           SKY/WX    TMP DP  RH WIND       PRES   REMARKS
MCCOMB         CLEAR     59  57  93 N3        29.94S
GULFPORT       CLEAR     64  60  87 NW3       29.90F FOG
BILOXI         CLEAR     64  64 100 N2        29.90F
PASCAGOULA     CLEAR     60  59  96 CALM      29.90F FOG

$$

COASTAL OBSERVATIONS
LAKE AND NEARSHORE STATIONS

STATION/POSITION TIME  TEMP    WIND        PRES    WAVE
                       AIR SEA DIR/SP/G            HT/PER
                 (UTC) (F)     (DEG/KT/KT) (MB)    (FT/S)
PASCAGOULA       0800   65     360/  5/  6 1011.9
WAVELAND YACHT   0800   64 72  250/  3/  3 1012.1
GRAND ISLE       0800   71 72  320/  8/  9 1013.7
SOUTHWEST PASS   0800   67 60  280/ 11/ 13 1013.5
NEW CANAL        0800   69 69  280/  2/  3 1013.8
SHELL BEACH      0800   69 67  330/  4/  4 1013.0

OFFSHORE STATIONS

STATION/POSITION TIME  TEMP    WIND        PRES    WAVE
                       AIR SEA DIR/SP/G            HT/PER
                 (UTC) (F)     (DEG/KT/KT) (MB)    (FT/S)
64 S DAUPHIN ISL 0730   69 68  270/ 12/ 14 1012.7

$$




USA.gov is the U.S. government's official web portal to all federal, state and local government web resources and services.